Lumberton, NC

12:45 PM EST on January 19, 2018 (GMT -0500)
Lumberton Municipal

Weather History for KLBT - March, 2012

Change the Weather History Date:

Tuesday, March 27, 2012

  Actual Average Record
Temperature  
Mean Temperature 55 °F 57 °F  
Max Temperature 64 °F 70 °F 83 °F (2007)
Min Temperature 45 °F 45 °F 25 °F (2014)
Degree Days  
Heating Degree Days 10 8  
Month to date heating degree days 146 316  
Since 1 July heating degree days 1994 2546  
Cooling Degree Days 0 0  
Month to date cooling degree days 54 0  
Year to date cooling degree days 54 3  
Growing Degree Days 4 (Base 50)    
Moisture  
Dew Point 31 °F    
Average Humidity 55    
Maximum Humidity 86    
Minimum Humidity 23    
Precipitation  
Precipitation 0.00 in 0.11 in 0.62 in (2015)
Month to date precipitation 3.55 2.86  
Year to date precipitation 8.35 8.73  
Sea Level Pressure  
Sea Level Pressure 30.26 in    
Wind  
Wind Speed 5 mph (NE)    
Max Wind Speed 15 mph    
Max Gust Speed 23 mph    
Visibility 10 miles    
Events      
T = Trace of Precipitation, MM = Missing Value Source: NWS Daily Summary

Daily Weather History Graph

Daily Weather History Graph

Search for Another Location

Airport or City:

Trip Planner

Search our weather history database for the weather conditions in past years. The results will help you decide how hot, cold, wet, or windy it might be!

Date:

Astronomy

Mar. 27, 2012 Rise Set
Actual Time 7:09 AM EDT 7:33 PM EDT
Civil Twilight 6:44 AM EDT 7:59 PM EDT
Nautical Twilight 6:14 AM EDT 8:28 PM EDT
Astronomical Twilight 5:44 AM EDT 8:58 PM EDT
Moon 9:51 AM EDT (3/27) No Moon Set
Length of Visible Light 13h 14m
Length of Day
12h 24m
Waxing Crescent, 22% of the Moon is Illuminated
Mar 27
Waxing Crescent
Mar 30
First Quarter
Apr 6
Full
Apr 13
Last Quarter
Apr 21
New

Hourly Weather History & Observations

Time (EDT) Temp. Windchill Dew Point Humidity Pressure Visibility Wind Dir Wind Speed Gust Speed Precip Events Conditions
12:54 AM 63.0 °F - 37.0 °F 38% 30.09 in 10.0 mi ENE 12.7 mph 20.7 mph N/A   Clear
1:54 AM 59.0 °F - 36.0 °F 42% 30.12 in 10.0 mi ENE 10.4 mph - N/A   Clear
2:54 AM 57.0 °F - 32.0 °F 39% 30.14 in 10.0 mi ENE 11.5 mph 18.4 mph N/A   Clear
3:54 AM 54.0 °F - 30.9 °F 41% 30.16 in 10.0 mi ENE 9.2 mph - N/A   Clear
4:54 AM 51.1 °F - 30.9 °F 46% 30.19 in 10.0 mi ENE 6.9 mph - N/A   Clear
5:54 AM 50.0 °F - 28.9 °F 44% 30.22 in 10.0 mi ENE 5.8 mph - N/A   Clear
6:54 AM 46.9 °F - 30.0 °F 52% 30.26 in 10.0 mi NE 5.8 mph - N/A   Clear
7:54 AM 46.9 °F - 28.9 °F 50% 30.29 in 10.0 mi NE 6.9 mph - N/A   Clear
8:54 AM 48.9 °F - 26.1 °F 41% 30.31 in 10.0 mi ENE 9.2 mph - N/A   Clear
9:54 AM 52.0 °F - 25.0 °F 35% 30.33 in 10.0 mi ENE 10.4 mph - N/A   Clear
10:54 AM 53.1 °F - 21.9 °F 30% 30.34 in 10.0 mi ENE 8.1 mph 16.1 mph N/A   Clear
11:54 AM 55.9 °F - 26.1 °F 32% 30.35 in 10.0 mi NNE 5.8 mph - N/A   Clear
12:54 PM 57.9 °F - 27.0 °F 31% 30.34 in 10.0 mi Variable 6.9 mph - N/A   Clear
1:54 PM 59.0 °F - 24.1 °F 26% 30.31 in 10.0 mi Calm Calm - N/A   Clear
2:54 PM 62.1 °F - 25.0 °F 24% 30.29 in 10.0 mi Calm Calm - N/A   Clear
3:54 PM 62.1 °F - 27.0 °F 26% 30.27 in 10.0 mi Variable 3.5 mph - N/A   Clear
4:54 PM 63.0 °F - 27.0 °F 26% 30.26 in 10.0 mi NW 4.6 mph - N/A   Clear
5:54 PM 63.0 °F - 30.0 °F 29% 30.25 in 10.0 mi Variable 3.5 mph - N/A   Clear
6:54 PM 61.0 °F - 28.9 °F 30% 30.26 in 10.0 mi Calm Calm - N/A   Clear
7:54 PM 52.0 °F - 36.0 °F 54% 30.26 in 10.0 mi Calm Calm - N/A   Clear
8:54 PM 48.9 °F - 43.0 °F 80% 30.28 in 10.0 mi Calm Calm - N/A   Clear
9:54 PM 46.0 °F - 41.0 °F 83% 30.30 in 10.0 mi Calm Calm - N/A   Clear
10:54 PM 46.0 °F 43.9 °F 41.0 °F 83% 30.30 in 10.0 mi ESE 4.6 mph - N/A   Clear
11:54 PM 46.0 °F - 42.1 °F 86% 30.30 in 10.0 mi Calm Calm - N/A   Clear